Regional Weather Roundup
Issued by NWS

Home | Current Version | Previous Version | Graphics & Text | Print | Product List | Glossary On
Versions: 1 2 3 4 5 6 7 8 9 10 11 12 13 14 15 16 17 18 19 20 21 22 23 24 25 26 27 28 29 30 31 32 33 34 35 36 37 38 39 40 41 42 43 44 45 46 47 48 49 50
000
ASUS45 KBOU 201907
RWRCO

WEATHER ROUNDUP FOR COLORADO
NATIONAL WEATHER SERVICE DENVER/BOULDER CO
100 PM MDT THU JUL 20 2017

NOTE: "FAIR" INDICATES FEW OR NO CLOUDS BELOW 12000 FEET WITH NO
SIGNIFICANT WEATHER AND/OR OBSTRUCTIONS TO VISIBILITY.

COZ001>005-013-030-031-202000-
...NORTHWEST COLORADO...

CITY           SKY/WX    TMP DP  RH WIND       PRES   REMARKS
CRAIG          FAIR      88  48  25 W12       30.26F
HAYDEN         FAIR      81  48  32 W5        30.30F
MEEKER         FAIR      83  57  41 SW7       30.27F
RABBIT EARS PA FAIR      64  50  59 W8        30.63F
STEAMBOAT SPGS FAIR      81  51  34 SW8       30.32F
WALDEN         FAIR      75  43  31 W10       30.42F
$$

COZ006>008-011-202000-
...WEST CENTRAL VALLEYS...

CITY           SKY/WX    TMP DP  RH WIND       PRES   REMARKS
GRAND JUNCTION FAIR      89  53  29 VRB5      30.15F
MONTROSE       FAIR      88  50  27 VRB5      30.22F
EAGLE          NOT AVBL
RIFLE          FAIR      87  52  29 NW8       30.21F
DELTA          FAIR      92  48  22 S6        30.18F
NUCLA          NOT AVBL
$$

COZ017>023-064>068-202000-
...SOUTHWEST COLORADO...

CITY           SKY/WX    TMP DP  RH WIND       PRES   REMARKS
DURANGO        FAIR      84  45  25 E12       30.32F
CORTEZ         FAIR      87  52  29 VRB5      30.26F
PAGOSA SPRINGS FAIR      80  41  24 S6        30.40F
TELLURIDE      FAIR      74  47  37 W9        30.51F
WOLF CREEK PAS FAIR      61  45  55 SW8       30.79F THUNDER
$$

COZ009-010-012-014-032>034-037-058>063-202000-
...CENTRAL COLORADO...

CITY           SKY/WX    TMP DP  RH WIND       PRES   REMARKS
ASPEN          FAIR      84  45  25 NW10      30.36F
BUENA VISTA    FAIR      75  50  40 S8        30.40S
COPPER MTN     PTSUNNY   64  41  42 N6        30.75F
BERTHOUD PASS  PTSUNNY   55  43  62 NW10G17   30.79S
COTTONWOOD PAS LGT RAIN  68  43  40 SE8       30.57F
GUNNISON       FAIR      78  45  30 CALM      30.38F
KREMMLING      FAIR      88  45  22 S7        30.36F
LEADVILLE      CLOUDY    69  41  36 SW6       30.52F
MONARCH PASS   PTSUNNY   64  41  42 SW15G30   30.85F
SALIDA         FAIR      87  40  18 S7        30.41F
SUNLIGHT       FAIR      63  48  59 NW6       30.68S
WILKERSON PASS FAIR      68  37  32 W3        30.72F
$$

COZ069>075-202000-
...SAN LUIS VALLEY/SANGRE DE CRISTO MOUNTAINS...

CITY           SKY/WX    TMP DP  RH WIND       PRES   REMARKS
ALAMOSA        FAIR      82  48  30 VRB3      30.38F
DEL NORTE      FAIR      79  50  36 NE6       30.42F
LA VETA PASS   NOT AVBL
SAGUACHE         N/A    N/A N/A N/A MISG        N/A
$$

COZ035-036-038>040-202000-
...NORTHERN COLORADO FRONT RANGE...

CITY           SKY/WX    TMP DP  RH WIND       PRES   REMARKS
DENVER INTL AP FAIR      88  53  30 NE6       30.19F
DMNS CITY PARK   N/A     89  51  27 E5        30.18F
AURORA         MOSUNNY   87  52  30 E8        30.21F
FRONT RANGE AP FAIR      88  52  29 E6        30.21F
ERIE MUNI ARPT FAIR      88  49  26 NE7       30.17F
BOULDER MUN AP FAIR      86  52  30 NE7       30.18F
CENTENNIAL     FAIR      86  52  30 E7        30.22F
BROOMFIELD     FAIR      86  50  28 E3        30.21
FORT COLLINS   FAIR      89  57  33 VRB7      30.17F
LONGMONT       FAIR      89  54  30 E8        30.18F
$$

COZ041-046-047-076>085-087-088-202000-
...PIKES PEAK/PALMER DIVIDE AND SOUTHERN FOOTHILLS...

CITY           SKY/WX    TMP DP  RH WIND       PRES   REMARKS
COLO. SPRINGS  FAIR      87  54  32 S10G16    30.26F
A. F. ACADEMY  SUNNY     84  52  32 S9G18     30.27F
SCHRIEVER AFB  FAIR      84  52  32 S9        30.27F
CHEYENNE MTN   FAIR      81  51  35 SE13G20   30.27F
ELLICOTT       FAIR     N/A N/A N/A SE9       30.25F
FALCON           N/A     84  49  29 CALM      30.33S
FORT CARSON    FAIR      86  52  30 S7        30.23F
LIMON          FAIR      88  56  33 NE8       30.19F
MONUMENT HILL  FAIR      81  50  34 SW7       30.34F
CANON CITY     SUNNY     91  55  29 CALM      30.18F
WALSENBURG     FAIR      93  48  21 E9        30.23F
TRINIDAD       FAIR      90  48  23 NW6       30.23F
$$

COZ042>045-048>051-090-091-202000-
...NORTHEAST COLORADO...

CITY           SKY/WX    TMP DP  RH WIND       PRES   REMARKS
GREELEY ARPT   FAIR      85  58  39 NE6       30.15F
AKRON          FAIR      91  55  29 VRB7      30.13F
BURLINGTON     FAIR      91  62  37 VRB5      30.08F
WRAY           NOT AVBL
YUMA           FAIR      86  46  25 NE9       30.09F
STERLING       FAIR      88  63  42 NE6       30.09F
HOLYOKE        FAIR      91  61  35 NE7       30.08F
FORT MORGAN    FAIR      90  55  30 E5        30.14F
$$

COZ086-089-092>099-202000-
...SOUTHEAST COLORADO...

CITY           SKY/WX    TMP DP  RH WIND       PRES   REMARKS
PUEBLO         FAIR      93  52  24 MISG      30.12F
LA JUNTA       FAIR      91  60  35 S7        30.12S
LAMAR          FAIR      92  62  36 W9        30.06F
SPRINGFIELD      N/A     91  56  30 SW12G21   30.12F
$$



USA.gov is the U.S. government's official web portal to all federal, state and local government web resources and services.